Watertown, NY

8:26 PM EST on November 11, 2019 (GMT -0500)
Watertown International

Weather History for KART - September, 2019

Change the Weather History Date:

Tuesday, September 3, 2019

  Actual Average Record
Temperature  
Mean Temperature 67 °F 64 °F  
Max Temperature 75 °F 75 °F 93 °F (1953)
Min Temperature 58 °F 53 °F 31 °F (1976)
Degree Days  
Heating Degree Days 0 3  
Month to date heating degree days 3 9  
Since 1 July heating degree days 32 81  
Cooling Degree Days 2 2  
Month to date cooling degree days 4 6  
Year to date cooling degree days 325 330  
Growing Degree Days 16 (Base 50)    
Moisture  
Dew Point 57 °F    
Average Humidity 71    
Maximum Humidity 93    
Minimum Humidity 49    
Precipitation  
Precipitation T in 0.11 in 0.89 in (1992)
Month to date precipitation 0.82 0.32  
Year to date precipitation 28.91 22.12  
Sea Level Pressure  
Sea Level Pressure 30.00 in    
Wind  
Wind Speed 6 mph (ENE)    
Max Wind Speed 13 mph    
Max Gust Speed 24 mph    
Visibility 10 miles    
Events      
T = Trace of Precipitation, MM = Missing Value Source: NWS Daily Summary

Daily Weather History Graph

Daily Weather History Graph

Search for Another Location

Airport or City:

Astronomy

Sep. 03, 2019 Rise Set
Actual Time 6:29 AM EDT 7:36 PM EDT
Civil Twilight 5:59 AM EDT 8:06 PM EDT
Nautical Twilight 5:24 AM EDT 8:41 PM EDT
Astronomical Twilight 4:46 AM EDT 9:18 PM EDT
Moon 11:29 AM EDT (9/3) 10:21 PM EDT (9/3)
Length of Visible Light 14h 06m
Length of Day
13h 07m
Waxing Crescent, 24% of the Moon is Illuminated
Sep 3
Waxing Crescent
Sep 5
First Quarter
Sep 14
Full
Sep 21
Last Quarter
Sep 28
New

Hourly Weather History & Observations

Time (EDT) Temp. Dew Point Humidity Pressure Visibility Wind Dir Wind Speed Gust Speed Precip Events Conditions
12:56 AM 63.0 °F 57.9 °F 84% 30.02 in 10.0 mi NE 5.8 mph - N/A   Overcast
1:56 AM 59.0 °F 57.0 °F 93% 30.01 in 10.0 mi ENE 5.8 mph - N/A   Scattered Clouds
2:19 AM 60.1 °F 57.9 °F 93% 30.02 in 10.0 mi NNE 4.6 mph - N/A   Mostly Cloudy
2:56 AM 61.0 °F 57.9 °F 90% 30.02 in 10.0 mi NNE 3.5 mph - N/A   Overcast
3:51 AM 60.8 °F 57.2 °F 88% 30.03 in 10.0 mi NNE 5.8 mph - N/A   Overcast
3:56 AM 61.0 °F 57.9 °F 90% 30.02 in 10.0 mi North 5.8 mph - N/A   Overcast
4:56 AM 60.1 °F 57.9 °F 93% 30.04 in 10.0 mi NE 6.9 mph - N/A   Overcast
5:41 AM 60.1 °F 57.9 °F 93% 30.06 in 10.0 mi NE 4.6 mph - N/A   Overcast
5:56 AM 60.1 °F 57.0 °F 90% 30.05 in 10.0 mi NE 6.9 mph - N/A   Overcast
6:13 AM 60.1 °F 57.0 °F 90% 30.07 in 10.0 mi NE 6.9 mph - N/A   Overcast
6:31 AM 60.1 °F 55.9 °F 86% 30.08 in 10.0 mi NNE 8.1 mph - N/A   Overcast
6:56 AM 59.0 °F 55.9 °F 90% 30.08 in 10.0 mi NE 6.9 mph - N/A   Overcast
7:56 AM 59.0 °F 55.9 °F 90% 30.08 in 10.0 mi NE 9.2 mph - N/A   Overcast
8:56 AM 61.0 °F 55.9 °F 83% 30.09 in 10.0 mi ENE 11.5 mph - N/A   Overcast
9:41 AM 64.0 °F 57.9 °F 80% 30.08 in 10.0 mi East 9.2 mph - N/A   Mostly Cloudy
9:56 AM 64.0 °F 57.0 °F 78% 30.07 in 10.0 mi East 9.2 mph - N/A   Overcast
10:16 AM 64.9 °F 57.0 °F 75% 30.07 in 10.0 mi East 8.1 mph - N/A   Partly Cloudy
10:56 AM 64.9 °F 55.9 °F 73% 30.07 in 10.0 mi East 10.4 mph - N/A   Clear
11:56 AM 70.0 °F 55.9 °F 61% 30.06 in 10.0 mi ENE 5.8 mph - N/A   Clear
12:56 PM 71.1 °F 54.0 °F 55% 30.03 in 10.0 mi SE 6.9 mph - N/A   Clear
1:56 PM 73.0 °F 53.1 °F 49% 30.01 in 10.0 mi ENE 5.8 mph - N/A   Partly Cloudy
2:56 PM 73.9 °F 54.0 °F 50% 29.99 in 10.0 mi Variable 5.8 mph - N/A   Clear
3:56 PM 73.9 °F 55.0 °F 52% 29.96 in 10.0 mi Calm Calm - N/A   Partly Cloudy
4:56 PM 73.9 °F 57.0 °F 55% 29.94 in 10.0 mi West 3.5 mph - N/A   Clear
5:56 PM 72.0 °F 60.1 °F 66% 29.92 in 10.0 mi Calm Calm - N/A   Scattered Clouds
6:56 PM 70.0 °F 60.1 °F 71% 29.92 in 10.0 mi Calm Calm - N/A   Overcast
7:56 PM 68.0 °F 62.1 °F 81% 29.91 in 10.0 mi East 3.5 mph - N/A   Mostly Cloudy
8:56 PM 66.9 °F 61.0 °F 81% 29.90 in 10.0 mi East 5.8 mph - N/A   Mostly Cloudy
9:56 PM 66.9 °F 60.1 °F 79% 29.85 in 10.0 mi SSE 6.9 mph - N/A   Partly Cloudy
10:56 PM 71.1 °F 60.1 °F 68% 29.82 in 10.0 mi South 8.1 mph - N/A   Clear
11:56 PM 73.0 °F 61.0 °F 66% 29.79 in 10.0 mi South 11.5 mph 19.6 mph N/A   Clear